This is the latest recevied weather packets stored in our database for station/object KO4RJX-10. If no packets are shown the sender has not sent any weather packets the latest 10 day(s).
| Time | Temp. | Humidity | Pressure | Rain* | Wind** | Luminosity | Snow |
|---|---|---|---|---|---|---|---|
| 1777643383 | 11.67° C | 64% | 1009.5 hPa | 0 mm | - | - | - |
| 1777642583 | 12.22° C | 53% | 1009.8 hPa | 0 mm | - | - | - |
| 1777638984 | 12.22° C | 58% | 1008.5 hPa | 0 mm | - | - | - |
| 1777636983 | 11.11° C | 60% | 1008.5 hPa | 0 mm | - | - | - |
| 1777636584 | 11.67° C | 60% | 1008.5 hPa | 0 mm | - | - | - |
| 1777635783 | 11.67° C | 56% | 1008.8 hPa | 0 mm | - | - | - |
| 1777634583 | 11.67° C | 56% | 1008.5 hPa | 0 mm | - | - | - |
| 1777631783 | 11.67° C | 57% | 1008.1 hPa | 0 mm | - | - | - |
| 1777630984 | 11.67° C | 58% | 1007.8 hPa | 0 mm | - | - | - |
| 1777628183 | 11.67° C | 59% | 1007.8 hPa | 0 mm | - | - | - |
| 1777626583 | 11.67° C | 57% | 1007.8 hPa | 0 mm | - | - | - |
| 1777621383 | 12.78° C | 55% | 1007.1 hPa | 0 mm | - | - | - |
| 1777619784 | 12.78° C | 53% | 1007.1 hPa | 0 mm | - | - | - |
| 1777618983 | 13.33° C | 53% | 1006.8 hPa | 0 mm | - | - | - |
| 1777618584 | 13.33° C | 54% | 1006.8 hPa | 0 mm | - | - | - |
| 1777618183 | 13.33° C | 54% | 1006.4 hPa | 0 mm | - | - | - |
| 1777617783 | 13.33° C | 54% | 1006.8 hPa | 0 mm | - | - | - |
| 1777615383 | 13.89° C | 54% | 1006.4 hPa | 0 mm | - | - | - |
| 1777614183 | 13.89° C | 53% | 1006.4 hPa | 0 mm | - | - | - |
| 1777613783 | 13.89° C | 52% | 1006.1 hPa | 0 mm | - | - | - |
| 1777612983 | 14.44° C | 50% | 1006.1 hPa | 0 mm | - | - | - |
| 1777610983 | 15° C | 50% | 1006.1 hPa | 0 mm | - | - | - |
| 1777609783 | 15.56° C | 51% | 1005.8 hPa | 0 mm | - | - | - |
| 1777608313 | 16.11° C | 56% | 1005.4 hPa | 0 mm | - | - | - |
| 1777606983 | 16.11° C | 60% | 1005.1 hPa | 6.35 mm | - | - | - |
* Rain since midnight (hover to see other rain measurements)
** Current wind speed in m/s (hover to see current wind gust speed)